TimeCST,TemperatureF,Dew PointF,Humidity,Sea Level PressureIn,VisibilityMPH,Wind Direction,Wind SpeedMPH,Gust SpeedMPH,PrecipitationIn,Events,Conditions,WindDirDegrees,DateUTC
12:53 AM,63.0,60.1,90,29.96,-9999.0,Calm,Calm,-,N/A,,Unknown,0,2012-11-06 06:53:00
1:53 AM,62.1,59.0,90,29.99,-9999.0,North,3.5,-,N/A,,Unknown,360,2012-11-06 07:53:00
2:53 AM,61.0,57.9,90,29.99,-9999.0,North,3.5,-,N/A,,Unknown,360,2012-11-06 08:53:00
3:53 AM,59.0,55.9,90,30.00,-9999.0,Calm,Calm,-,N/A,,Unknown,0,2012-11-06 09:53:00
4:53 AM,57.9,55.9,93,30.00,-9999.0,Calm,Calm,-,0.01,,Unknown,0,2012-11-06 10:53:00
5:53 AM,57.0,55.0,93,30.01,-9999.0,Calm,Calm,-,N/A,,Unknown,0,2012-11-06 11:53:00
6:53 AM,55.9,55.0,97,30.02,-9999.0,Calm,Calm,-,N/A,,Unknown,0,2012-11-06 12:53:00
7:53 AM,59.0,57.0,93,30.04,-9999.0,North,5.8,-,N/A,,Unknown,350,2012-11-06 13:53:00
8:53 AM,57.9,55.9,93,30.06,-9999.0,North,6.9,-,N/A,,Unknown,350,2012-11-06 14:53:00
9:53 AM,57.9,55.9,93,30.08,-9999.0,North,5.8,-,N/A,,Unknown,350,2012-11-06 15:53:00
10:53 AM,59.0,55.0,87,30.07,-9999.0,Variable,4.6,-,N/A,,Unknown,0,2012-11-06 16:53:00
11:53 AM,61.0,54.0,78,30.05,-9999.0,NNW,8.1,-,N/A,,Unknown,340,2012-11-06 17:53:00
12:53 PM,64.0,54.0,70,30.01,-9999.0,North,8.1,-,N/A,,Unknown,350,2012-11-06 18:53:00
1:53 PM,68.0,53.1,59,30.00,-9999.0,Variable,4.6,-,N/A,,Unknown,0,2012-11-06 19:53:00
2:53 PM,68.0,52.0,56,30.00,-9999.0,Variable,4.6,-,N/A,,Unknown,0,2012-11-06 20:53:00
3:53 PM,68.0,50.0,52,30.00,-9999.0,Variable,5.8,-,N/A,,Unknown,0,2012-11-06 21:53:00
4:53 PM,64.9,53.1,65,30.01,-9999.0,Calm,Calm,-,N/A,,Unknown,0,2012-11-06 22:53:00
5:53 PM,62.1,51.1,67,30.03,-9999.0,Calm,Calm,-,N/A,,Unknown,0,2012-11-06 23:53:00
6:53 PM,60.1,51.1,72,30.05,-9999.0,Calm,Calm,-,N/A,,Unknown,0,2012-11-07 00:53:00
7:53 PM,57.9,51.1,78,30.07,-9999.0,Calm,Calm,-,N/A,,Unknown,0,2012-11-07 01:53:00
8:53 PM,57.0,51.1,81,30.09,-9999.0,Calm,Calm,-,N/A,,Unknown,0,2012-11-07 02:53:00
9:53 PM,55.0,51.1,86,30.10,-9999.0,North,3.5,-,N/A,,Unknown,360,2012-11-07 03:53:00
10:53 PM,55.0,50.0,83,30.09,-9999.0,Calm,Calm,-,N/A,,Unknown,0,2012-11-07 04:53:00
11:53 PM,54.0,50.0,86,30.09,-9999.0,Calm,Calm,-,N/A,,Unknown,0,2012-11-07 05:53:00